Preview of NWS' New Version of Forecast
This preview is not operational and should not be used for support decisions.

Regional Weather Roundup (RWR)

Issued by National Weather Service (NWS)

                            
000
ASUS43 KLSX 260907
RWRMO 

WEATHER SUMMARY FOR MISSOURI
NATIONAL WEATHER SERVICE SPRINGFIELD MO
400 AM CDT SUN MAY 26 2019

NOTE: "FAIR" INDICATES FEW OR NO CLOUDS BELOW 12,000 FEET WITH NO
       SIGNIFICANT WEATHER AND/OR OBSTRUCTIONS TO VISIBILITY.
       CURRENT SKY AND/OR WEATHER CONDITIONS ARE NOT AVAILABLE FOR
       CHILLICOTHE AND FARMINGTON.

MOZ001>031-035>038-043-044-053-054-261000-
...NORTHERN AND WESTERN MISSOURI...
  
CITY           SKY/WX    TMP DP  RH WIND       PRES   REMARKS
KANSAS CTY INT CLOUDY    64  64 100 CALM      29.99R                  
KANSAS C DTWN  CLOUDY    67  64  90 CALM      29.97S                  
LEE'S SUMMIT   CLOUDY    65  63  93 CALM      29.99R                  
ST JOSEPH      CLOUDY    65  63  93 S9        29.95R                  
CHILLICOTHE      N/A     67  65  93 CALM      30.00F                  
KIRKSVILLE     RAIN      65  64  97 CALM      30.03R FOG              
     
$$
MOZ066>068-077>081-088>096-101>105-261000-
...SOUTHWEST MISSOURI...
  
CITY           SKY/WX    TMP DP  RH WIND       PRES   REMARKS
SPRINGFIELD    CLOUDY    71  65  81 SW7       30.05R                  
JOPLIN         RAIN      65  64  97 SW6       30.02F                  
BRANSON        CLOUDY    73  63  68 SW13G21   30.08S                  
               
$$
MOZ032>034-039>042-045>050-055>058-069>072-261000-
...CENTRAL MISSOURI...  
  
CITY           SKY/WX    TMP DP  RH WIND       PRES   REMARKS
COLUMBIA       CLOUDY    71  67  87 CALM      30.01R                  
ROLLA          PTCLDY    71  64  78 S7        30.04S                  
SEDALIA        CLOUDY    66  65  96 NE3       30.00S                  
WHITEMAN AFB   CLOUDY    69  64  86 W5        29.97R                  
WARRENSBURG    CLOUDY    66  61  82 NW3       29.99R                  
OSAGE BEACH    CLOUDY    71  67  87 S5        30.02R                  
               
$$
MOZ051-052-059>065-261000-
...EAST CENTRAL MISSOURI...
  
CITY           SKY/WX    TMP DP  RH WIND       PRES   REMARKS
ST LOUIS INTL  CLOUDY    77  67  71 N10       30.03R                  
SPIRIT OF STL  CLOUDY    76  68  76 SW6       30.00F                  
ST CHARLES       N/A    N/A N/A N/A MISG      30.02R                  
                   
$$
MOZ072>076-082>087-097>100-106>115-261000-
...SOUTH CENTRAL AND SOUTHEAST MISSOURI...
  
CITY           SKY/WX    TMP DP  RH WIND       PRES   REMARKS
CAPE GIRARDEAU MOCLDY    72  67  84 CALM      30.05S                  
FARMINGTON     CLOUDY    68  66  93 CALM      30.07S                  
POPLAR BLUFF   LGT RAIN  70  69  97 CALM      30.05R                  
WEST PLAINS    CLOUDY    69  63  81 SW3       30.08S                  
                                       
$$